This demonstration page uses our WeatherBlox Daily Observations layout. Learn more.

Left ArrowRight Arrow

Hourly Observations for December 11, 2017

Temp ( °F °C ) Dew Point ( °F °C ) Humidity (%) Winds ( mph kmh ) Pressure ( in mb ) Visibility ( mi km ) Precip ( " mm )
12:53 am 00:53 Clear 31 -0.6 27 -2.8 85 85 N 5 7 30.37 1028 10 16 0.00 0.00
1:53 am 01:53 Clear 28 -2.2 26 -3.3 92 92 NNW 6 9 30.36 1028 10 16 0.00 0.00
2:53 am 02:53 Clear 29 -1.7 26 -3.3 89 89 NNW 3 6 30.34 1028 10 16 0.00 0.00
3:53 am 03:53 Clear 27 -2.8 25 -3.9 92 92 N 7 11 30.33 1027 10 16 0.00 0.00
4:53 am 04:53 Clear 26 -3.3 24 -4.4 92 92 N 7 11 30.32 1027 10 16 0.00 0.00
5:53 am 05:53 Clear 25 -3.9 23 -5 92 92 N 7 11 30.32 1027 10 16 0.00 0.00
6:53 am 06:53 Clear 26 -3.3 24 -4.4 92 92 NNW 5 7 30.33 1027 10 16 0.00 0.00
7:53 am 07:53 Sunny 28 -2.2 25 -3.9 88 88 N 7 11 30.34 1027 10 16 0.00 0.00
8:53 am 08:53 Sunny 33 0.6 28 -2.2 82 82 Calm 30.34 1027 10 16 0.00 0.00
9:53 am 09:53 Sunny 39 3.9 33 0.6 79 79 Calm 30.34 1028 10 16 0.00 0.00
10:53 am 10:53 Sunny 44 6.7 34 1.1 68 68 S 5 7 30.34 1027 10 16 0.00 0.00
11:53 am 11:53 Sunny 54 12.2 31 -0.6 42 42 WSW 6 9 30.30 1026 10 16 0.00 0.00
12:53 pm 12:53 Sunny 60 15.6 24 -4.4 25 25 W 9 15 30.25 1025 10 16 0.00 0.00
1:53 pm 13:53 Sunny 62 16.7 24 -4.4 23 23 WSW 8 13 30.22 1023 10 16 0.00 0.00
2:53 pm 14:53 Sunny 61 16.1 22 -5.6 22 22 NW 5 7 30.20 1023 10 16 0.00 0.00
3:53 pm 15:53 Sunny 63 17.2 22 -5.6 21 21 W 8 13 30.20 1023 10 16 0.00 0.00
4:53 pm 16:53 Sunny 65 18.3 21 -6.1 19 19 WNW 6 9 30.19 1023 10 16 0.00 0.00
5:53 pm 17:53 Clear 54 12.2 28 -2.2 37 37 N 7 11 30.22 1023 10 16 0.00 0.00
6:53 pm 18:53 Clear 50 10 28 -2.2 43 43 N 3 6 30.24 1024 10 16 0.00 0.00
7:53 pm 19:53 Clear 44 6.7 30 -1.1 58 58 Calm 30.26 1025 10 16 0.00 0.00
8:53 pm 20:53 Clear 39 3.9 31 -0.6 73 73 N 6 9 30.28 1025 10 16 0.00 0.00
9:53 pm 21:53 Clear 37 2.8 30 -1.1 76 76 N 8 13 30.29 1026 10 16 0.00 0.00
10:53 pm 22:53 Clear 36 2.2 29 -1.7 76 76 NNW 6 9 30.31 1026 10 16 0.00 0.00
11:53 pm 23:53 Clear 34 1.1 25 -3.9 70 70 N 9 15 30.32 1027 10 16 0.00 0.00

Powered by AerisWeather